EDT,Max TemperatureF,Mean TemperatureF,Min TemperatureF,Max Dew PointF,MeanDew PointF,Min DewpointF,Max Humidity, Mean Humidity, Min Humidity, Max Sea Level PressureIn, Mean Sea Level PressureIn, Min Sea Level PressureIn, Max VisibilityMiles, Mean VisibilityMiles, Min VisibilityMiles, Max Wind SpeedMPH, Mean Wind SpeedMPH, Max Gust SpeedMPH,PrecipitationIn, CloudCover, Events, WindDirDegrees
2013-6-1,87,78,71,72,69,67,93,73,53,30.20,30.15,30.10,10,10,8,16,8,25,0.01,1,,208
2013-6-2,86,78,71,72,69,66,96,75,55,30.12,30.05,30.00,10,10,8,18,9,26,0.00,0,,199
2013-6-3,81,76,71,75,72,70,100,88,74,30.01,29.95,29.89,10,8,0,21,9,30,0.99,4,Fog-Rain,206
2013-6-4,80,75,71,73,70,65,100,87,66,30.12,29.99,29.91,10,8,0,17,6,23,0.00,5,Fog-Rain,23
2013-6-5,78,76,73,66,61,59,76,62,52,30.15,30.11,30.07,10,10,10,15,12,21,0.00,1,,69
2013-6-6,81,76,73,74,70,66,94,81,66,30.08,29.96,29.88,10,9,1,16,9,21,0.12,6,Rain,142
2013-6-7,84,78,75,79,74,70,100,88,74,29.91,29.72,29.60,10,6,0,36,17,48,1.98,7,Fog-Rain,180
2013-6-8,87,81,75,76,74,72,94,83,63,30.12,29.98,29.88,10,10,3,25,14,34,0.08,3,Rain,210
2013-6-9,87,81,75,76,74,70,97,85,63,30.18,30.15,30.12,10,8,2,22,8,29,0.11,2,Rain,188
2013-6-10,86,80,75,75,73,72,94,79,62,30.17,30.07,30.00,10,10,9,25,13,34,0.00,3,Rain,203
2013-6-11,84,80,75,75,73,71,94,81,65,30.02,29.96,29.89,10,9,2,24,14,29,0.09,4,Rain,224
2013-6-12,91,82,73,77,71,67,94,72,45,29.99,29.94,29.90,10,8,5,16,8,22,0.00,0,,239
2013-6-13,93,84,72,79,74,66,94,78,54,29.90,29.78,29.65,10,7,2,30,13,43,0.17,1,Rain,219
2013-6-14,79,74,69,70,62,56,94,66,47,30.03,29.84,29.69,10,9,2,21,13,37,0.22,2,,330
2013-6-15,84,73,64,62,60,56,87,62,42,30.13,30.09,30.04,10,10,7,12,7,,0.00,0,,227
2013-6-16,84,77,70,68,65,62,84,67,46,30.17,30.12,30.07,10,10,6,20,10,26,0.00,1,,220
2013-6-17,86,78,72,72,69,67,84,73,63,30.09,30.06,30.01,10,10,9,18,10,25,0.00,2,,211
2013-6-18,87,80,73,77,74,69,91,81,65,30.02,29.92,29.83,10,9,4,18,9,28,0.06,3,Rain,209
2013-6-19,77,74,71,73,68,64,97,82,71,30.10,30.00,29.87,10,9,2,18,13,25,0.11,7,,34
2013-6-20,80,75,71,69,66,62,87,76,56,30.15,30.13,30.11,10,10,10,17,14,24,0.00,3,,36
2013-6-21,81,76,72,74,72,68,90,82,74,,,,10,10,9,16,12,21,0.00,6,,58
2013-6-22,81,77,73,73,72,70,93,84,71,,,,10,9,3,15,5,21,0.10,5,,143
2013-6-23,84,80,75,75,74,72,96,84,69,30.25,30.22,30.18,10,9,5,13,6,20,0.05,3,,176
2013-6-24,86,78,73,76,74,71,96,86,74,30.27,30.21,30.14,10,9,1,18,7,26,0.69,2,,214
2013-6-25,88,81,75,76,74,70,97,82,67,30.17,30.12,30.04,10,10,8,16,9,21,0.00,1,,222
2013-6-26,88,80,73,76,74,72,94,82,65,30.06,30.02,29.96,10,10,10,17,9,25,0.00,1,,219
2013-6-27,88,81,75,77,76,70,87,80,69,29.94,29.87,29.80,10,10,8,23,15,33,0.00,3,,211
2013-6-28,88,83,79,79,78,76,97,86,74,29.81,29.72,29.67,10,8,4,22,16,31,1.05,5,Rain,217
2013-6-29,84,80,75,77,74,72,90,79,71,29.82,29.73,29.68,10,9,8,30,16,38,0.05,4,,206
2013-6-30,82,78,75,78,75,72,100,88,79,29.95,29.86,29.80,10,7,0,20,13,30,1.13,6,Fog-Rain,204